Satellite: RS-30
Catalog number: 32953
Epoch time:      11076.79249928
Element set:     560
Inclination:      082.4997 deg
RA of node:       219.5291 deg
Eccentricity:    0.0018435
Arg of perigee:   223.4775 deg
Mean anomaly:     136.4856 deg
Mean motion:   12.43010959 rev/day
Decay rate:        1.0e-07 rev/day^2
Epoch rev:           12773
Checksum:              319

Satellite: TACSAT-3
Catalog number: 35001
Epoch time:      11076.87353316
Element set:     536
Inclination:      040.4546 deg
RA of node:       006.0469 deg
Eccentricity:    0.0024308
Arg of perigee:   251.2641 deg
Mean anomaly:     108.5269 deg
Mean motion:   15.45720155 rev/day
Decay rate:     1.4681e-04 rev/day^2
Epoch rev:           10293
Checksum:              272

Satellite: PHARMSAT
Catalog number: 35002
Epoch time:      11075.92562869
Element set:    0502
Inclination:      040.4737 deg
RA of node:       009.2531 deg
Eccentricity:    0.0026232
Arg of perigee:   250.2748 deg
Mean anomaly:     109.5233 deg
Mean motion:   15.45778538 rev/day
Decay rate:     1.3321e-04 rev/day^2
Epoch rev:           10281
Checksum:              271

Satellite: HAWKSAT1
Catalog number: 35003
Epoch time:      11075.84735648
Element set:    0551
Inclination:      040.4600 deg
RA of node:       351.7163 deg
Eccentricity:    0.0025468
Arg of perigee:   273.1266 deg
Mean anomaly:     086.6632 deg
Mean motion:   15.54351611 rev/day
Decay rate:     4.0262e-04 rev/day^2
Epoch rev:           10300
Checksum:              262

Satellite: CP6
Catalog number: 35004
Epoch time:      11075.88526919
Element set:    0552
Inclination:      040.4610 deg
RA of node:       346.6004 deg
Eccentricity:    0.0025570
Arg of perigee:   278.9737 deg
Mean anomaly:     080.7879 deg
Mean motion:   15.57206385 rev/day
Decay rate:     5.3339e-04 rev/day^2
Epoch rev:           10305
Checksum:              312

Satellite: AEROCUB3
Catalog number: 35005
Epoch time:      11006.09222617
Element set:     610
Inclination:      040.4461 deg
RA of node:       021.7975 deg
Eccentricity:    0.0025578
Arg of perigee:   084.1677 deg
Mean anomaly:     280.7191 deg
Mean motion:   16.39196088 rev/day
Decay rate:  1.4049365e-01 rev/day^2
Epoch rev:            9254
Checksum:              305

Satellite: METEOR-M
Catalog number: 35865
Epoch time:      11076.73893655
Element set:     195
Inclination:      098.7178 deg
RA of node:       133.0084 deg
Eccentricity:    0.0001950
Arg of perigee:   314.5788 deg
Mean anomaly:     045.5188 deg
Mean motion:   14.21835242 rev/day
Decay rate:       1.76e-06 rev/day^2
Epoch rev:            7759
Checksum:              328

Satellite: RS-38
Catalog number: 35869
Epoch time:      11076.75002460
Element set:     203
Inclination:      098.7156 deg
RA of node:       133.0588 deg
Eccentricity:    0.0004107
Arg of perigee:   303.5164 deg
Mean anomaly:     056.5601 deg
Mean motion:   14.22002745 rev/day
Decay rate:       1.77e-06 rev/day^2
Epoch rev:            7760
Checksum:              279

/EX


_______________________________________________
Via the Keps mailing list courtesy of AMSAT-NA
http://amsat.org/mailman/listinfo/keps

--- ViaMAIL!/WC v1.60d
 * Origin: Chowdanet (401-724-4410) telnet://chowdanet.com  (1:323/120)